Flag for Norway Weather past 2 weeks in Tønsberg, Norway

Now
52 °F

Scattered showers. Partly sunny.


Feels Like: 43 °F
Forecast: 51 / 54 °F
Wind: 46 mph from Southwest

Location: Oseberg

Current Time: Oct 25, 2014 at 5:38:41 PM

Latest Report: Oct 25, 2014 at 4:50 PM


Visibility: 6 mi

Pressure: 29.45 "Hg

Humidity: 88%

Dew point: 48 °F

Location of TønsbergLocation

Historic Weather in Tønsberg — Graph

°F

Tønsberg temperature yesterday

Maximum temperature yesterday: 54 °F (at 1:50 AM)
Minimum temperature yesterday: 50 °F (at 10:20 AM)
Average temperature yesterday: 51 °F

Past Weeks' High & Low Weather Summary

 TemperatureHumidityPressure
High55 °F (Oct 14, 2:50 PM)100% (Oct 18, 10:50 AM)29.95 "Hg (Oct 18, 10:50 AM)
Low43 °F (Oct 22, 7:20 AM)50% (Oct 16, 10:50 PM)29.06 "Hg (Oct 21, 12:50 PM)
Average51 °F79%29.66 "Hg
* Reported Oct 10 4:20 PM — Oct 25 4:20 PM, Tønsberg, Weather by CustomWeather, © 2014

Note: Actual official high and low records may vary slightly from our data, if they occured in-between our weather recording intervals... More about our weather records

Advertising

Tønsberg weather history for previous 24 hours

 ConditionsComfort  
Time TempWeatherWind HumidityBarometerVisibility
4:20 PM
Oct 25
52 °FPartly sunny.47 mph88%29.45 "Hg6 mi
3:50 PM52 °FBroken clouds.46 mph82%29.45 "Hg6 mi
2:50 PM50 °FLight rain. Partly sunny.48 mph88%29.47 "Hg4 mi
2:20 PM50 °FLight rain. Partly sunny.46 mph88%29.47 "Hg6 mi
1:50 PM50 °FSprinkles. Partly sunny.46 mph88%29.47 "Hg6 mi
1:20 PM50 °FLight rain. Partly sunny.40 mph88%29.50 "Hg6 mi
12:50 PM50 °FLight rain. Partly sunny.45 mph82%29.50 "Hg5 mi
12:20 PM52 °FScattered clouds.44 mph82%29.50 "HgN/A
11:50 AM52 °FBroken clouds.39 mph82%29.50 "HgN/A
10:50 AM52 °FScattered clouds.39 mph77%29.53 "HgN/A
10:20 AM50 °FBroken clouds.38 mph76%29.53 "HgN/A
9:50 AM50 °FSprinkles. Broken clouds.38 mph82%29.53 "HgN/A
9:20 AM50 °FBroken clouds.36 mph82%29.53 "HgN/A
8:50 AM50 °FPartly cloudy.35 mph82%29.53 "HgN/A
8:20 AM50 °FPartly cloudy.35 mph82%29.53 "HgN/A
7:50 AM50 °FPassing clouds.33 mph82%29.53 "HgN/A
7:20 AM50 °FPassing clouds.33 mph82%29.53 "HgN/A
6:50 AM50 °FPassing clouds.31 mph82%29.53 "HgN/A
5:50 AM50 °FPassing clouds.31 mph88%29.53 "HgN/A
4:50 AM50 °FPassing clouds.31 mph82%29.56 "HgN/A
3:50 AM50 °FPassing clouds.29 mph88%29.56 "HgN/A
2:50 AM50 °FPassing clouds.31 mph82%29.56 "HgN/A
1:50 AM50 °FPassing clouds.29 mph82%29.56 "HgN/A
12:50 AM50 °FPassing clouds.32 mph82%29.56 "HgN/A
11:50 PM
Oct 24
50 °FPartly cloudy.32 mph82%29.56 "HgN/A
10:50 PM50 °FPartly cloudy.33 mph82%29.59 "HgN/A
9:50 PM50 °FPassing clouds.30 mph82%29.59 "HgN/A
8:50 PM50 °FPassing clouds.30 mph76%29.59 "HgN/A
7:50 PM50 °FPassing clouds.29 mph76%29.59 "HgN/A
6:50 PM50 °FPassing clouds.28 mph71%29.59 "HgN/A
5:50 PM50 °FPartly sunny.29 mph76%29.62 "HgN/A
5:20 PM50 °FPartly sunny.30 mph76%29.62 "HgN/A
Weather by CustomWeather, © 2014

See weather overviewHow to use our weather pages